QPF
0.00 0.00 0.00 0.00 0.00 0.00 0.00 0.00 0.00 0.00 0.00 0.00 0.00 0.00 0.00 0.00 0.00 0.00 0.00 0.00 0.00 0.00 0.00 0.00 0.00 0.00 0.00 0.00 0.00 0.00 0.00 0.00 0.00 0.00 0.00 0.00 0.00 0.00 0.00 0.00 0.00 0.00 0.00 0.00
0.00 0.00 0.00 0.00 0.00 0.00 0.00 0.00 0.00 0.00 0.00 0.00 0.00 0.00 0.00 0.00 0.00 0.00 0.00 0.00 0.00 0.00 0.00 0.00 0.00 0.00 0.00 0.00 0.00 0.00 0.00 0.00 0.00 0.00 0.00 0.00 0.00 0.00 0.00 0.00 0.00 0.00 0.00 0.00
0.00 0.00 0.00 0.00 0.00 0.00 0.00 0.00 0.00 0.00 0.00 0.00 0.00 0.00 0.00 0.00 0.00 0.00 0.00 0.00 0.00 0.00 0.00 0.00 0.00 0.00 0.00 0.00 0.00 0.00 0.00 0.00 0.00 0.00 0.00 0.00 0.00 0.00 0.00 0.00 0.00 0.00 0.00 0.00
0.00 0.00 0.00 0.00 0.00 0.00 0.00 0.00 0.00 0.00 0.00 0.00 0.00 0.00 0.00 0.00 0.00 0.00 0.00 0.00 0.00 0.00 0.00 0.00 0.00 0.00 0.00 0.00 0.00 0.00 0.00 0.00 0.00 0.00 0.00 0.00 0.00 0.00 0.00 0.00 0.00 0.00 0.00 0.00
0.00 0.00 0.00 0.00 0.00 0.00 0.00 0.00 0.00 0.00 0.00 0.00 0.00 0.00 0.00 0.00 0.00 0.00 0.00 0.00 0.00 0.00 0.00 0.00 0.00 0.00 0.00 0.00 0.00 0.00 0.00 0.00 0.00 0.00 0.00 0.00 0.00 0.00 0.00 0.00 0.00 0.00 0.00 0.00
0.00 0.00 0.00 0.00 0.00 0.00 0.00 0.00 0.00 0.00 0.00 0.00 0.00 0.00 0.00 0.00 0.00 0.00 0.00 0.00 0.00 0.00 0.00 0.00 0.00 0.00 0.00 0.00 0.00 0.00 0.00 0.00 0.00 0.00 0.00 0.00 0.00 0.00 0.00 0.00 0.00 0.00 0.00 0.00
0.00 0.00 0.00 0.00 0.00 0.00 0.00 0.00 0.00 0.00 0.00 0.00 0.00 0.00 0.00 0.00 0.00 0.00 0.00 0.00 0.00 0.00 0.00 0.00 0.00 0.00 0.00 0.00 0.00 0.00 0.00 0.00 0.00 0.00 0.00 0.00 0.00 0.00 0.00 0.00 0.00 0.00 0.00 0.00
0.00 0.00 0.00 0.00 0.00 0.00 0.00 0.00 0.00 0.00 0.00 0.00 0.00 0.00 0.00 0.00 0.00 0.00 0.00 0.00 0.00 0.00 0.00 0.00 0.00 0.00 0.00 0.00 0.00 0.00 0.00 0.00 0.00 0.00 0.00 0.00 0.00 0.00 0.00 0.00 0.00 0.00 0.00 0.00
0.00 0.00 0.00 0.00 0.00 0.00 0.00 0.00 0.00 0.00 0.00 0.00 0.00 0.00 0.00 0.00 0.00 0.00 0.00 0.00 0.00 0.00 0.00 0.00 0.00 0.00 0.00 0.00 0.00 0.00 0.00 0.00 0.00 0.00 0.00 0.00 0.00 0.00 0.00 0.00 0.00 0.00 0.00 0.00
0.00 0.00 0.00 0.00 0.00 0.00 0.00 0.00 0.00 0.00 0.00 0.00 0.00 0.00 0.00 0.00 0.00 0.00 0.00 0.00 0.00 0.00 0.00 0.00 0.00 0.00 0.00 0.00 0.00 0.00 0.00 0.00 0.00 0.00 0.00 0.00 0.00 0.00 0.00 0.00 0.00 0.00 0.00 0.00
0.00 0.00 0.00 0.00 0.00 0.00 0.00 0.00 0.00 0.00 0.00 0.00 0.00 0.00 0.00 0.00 0.00 0.00 0.00 0.00 0.00 0.00 0.00 0.00 0.00 0.00 0.00 0.00 0.00 0.00 0.00 0.00 0.00 0.00 0.00 0.00 0.00 0.00 0.00 0.00 0.00 0.00 0.00 0.00
0.00 0.00 0.00 0.00 0.00 0.00 0.00 0.00 0.00 0.00 0.00 0.00 0.00 0.00 0.00 0.00 0.00 0.00 0.00 0.00 0.00 0.00 0.00 0.00 0.00 0.00 0.00 0.00 0.00 0.00 0.00 0.00 0.00 0.00 0.00 0.00 0.00 0.00 0.00 0.00 0.00 0.00 0.00 0.00
0.00 0.00 0.00 0.00 0.00 0.00 0.00 0.00 0.00 0.00 0.00 0.00 0.00 0.00 0.00 0.00 0.00 0.00 0.00 0.00 0.00 0.00 0.00 0.00 0.00 0.00 0.00 0.00 0.00 0.00 0.00 0.00 0.00 0.00 0.00 0.00 0.00 0.00 0.00 0.00 0.00 0.00 0.00 0.00
0.00 0.00 0.00 0.00 0.00 0.00 0.00 0.00 0.00 0.00 0.00 0.00 0.00 0.00 0.00 0.00 0.00 0.00 0.00 0.00 0.00 0.00 0.00 0.00 0.00 0.00 0.00 0.00 0.00 0.00 0.00 0.00 0.00 0.00 0.00 0.00 0.00 0.00 0.00 0.00 0.00 0.00 0.00 0.00
0.00 0.00 0.00 0.00 0.00 0.00 0.00 0.00 0.00 0.00 0.00 0.00 0.00 0.00 0.00 0.00 0.00 0.00 0.00 0.00 0.00 0.00 0.00 0.00 0.00 0.00 0.00 0.00 0.00 0.00 0.00 0.00 0.00 0.00 0.00 0.00 0.00 0.00 0.00 0.00 0.00 0.00 0.00 0.00
0.00 0.00 0.00 0.00 0.00 0.00 0.00 0.00 0.00 0.00 0.00 0.00 0.00 0.00 0.00 0.00 0.00 0.00 0.00 0.00 0.00 0.00 0.00 0.00 0.00 0.00 0.00 0.00 0.00 0.00 0.00 0.00 0.00 0.00 0.00 0.00 0.00 0.00 0.00 0.00 0.00 0.00 0.00 0.00
0.00 0.00 0.00 0.00 0.00 0.00 0.00 0.00 0.00 0.00 0.00 0.00 0.00 0.00 0.00 0.00 0.00 0.00 0.00 0.00 0.00 0.00 0.00 0.00 0.00 0.00 0.00 0.00 0.00 0.00 0.00 0.00 0.00 0.00 0.00 0.00 0.00 0.00 0.00 0.00 0.00 0.00 0.00 0.00
0.00 0.00 0.00 0.00 0.00 0.00 0.00 0.00 0.00 0.00 0.00 0.00 0.00 0.00 0.00 0.00 0.00 0.00 0.00 0.00 0.00 0.00 0.00 0.00 0.00 0.00 0.00 0.00 0.00 0.00 0.00 0.00 0.00 0.00 0.00 0.00 0.00 0.00 0.00 0.00 0.00 0.00 0.00 0.00
0.00 0.00 0.00 0.00 0.00 0.00 0.00 0.00 0.00 0.00 0.00 0.00 0.00 0.00 0.00 0.00 0.00 0.00 0.00 0.00 0.00 0.00 0.00 0.00 0.00 0.00 0.00 0.00 0.00 0.00 0.00 0.00 0.00 0.00 0.00 0.00 0.00 0.00 0.00 0.00 0.00 0.00 0.00 0.00
0.00 0.00 0.00 0.00 0.00 0.00 0.00 0.00 0.00 0.00 0.00 0.00 0.00 0.00 0.00 0.00 0.00 0.00 0.00 0.00 0.00 0.00 0.00 0.00 0.00 0.00 0.00 0.00 0.00 0.00 0.00 0.00 0.00 0.00 0.00 0.00 0.00 0.00 0.00 0.00 0.00 0.00 0.00 0.00
0.00 0.00 0.00 0.00 0.00 0.00 0.00 0.00 0.00 0.00 0.00 0.00 0.00 0.00 0.00 0.00 0.00 0.00 0.00 0.00 0.00 0.00 0.00 0.00 0.00 0.00 0.00 0.00 0.00 0.00 0.00 0.00 0.00 0.00 0.00 0.00 0.00 0.00 0.00 0.00 0.00 0.00 0.00 0.00
0.00 0.00 0.00 0.00 0.00 0.00 0.00 0.00 0.00 0.00 0.00 0.00 0.00 0.00 0.00 0.00 0.00 0.00 0.00 0.00 0.00 0.00 0.00 0.00 0.00 0.00 0.00 0.00 0.00 0.00 0.00 0.00 0.00 0.00 0.00 0.00 0.00 0.00 0.00 0.00 0.00 0.00 0.00 0.00
0.00 0.00 0.00 0.00 0.00 0.00 0.00 0.00 0.00 0.00 0.00 0.00 0.00 0.00 0.00 0.00 0.00 0.00 0.00 0.00 0.00 0.00 0.00 0.00 0.00 0.00 0.01 0.00 0.00 0.00 0.00 0.00 0.00 0.00 0.00 0.00 0.00 0.00 0.00 0.00 0.00 0.00 0.00 0.00
0.00 0.00 0.00 0.00 0.00 0.00 0.00 0.00 0.00 0.00 0.00 0.00 0.00 0.00 0.00 0.00 0.00 0.00 0.00 0.00 0.00 0.01 0.00 0.00 0.00 0.01 0.00 0.00 0.00 0.00 0.00 0.00 0.00 0.00 0.00 0.00 0.00 0.00 0.00 0.00 0.00 0.00 0.00 0.00
0.00 0.00 0.00 0.00 0.00 0.00 0.00 0.00 0.00 0.00 0.00 0.00 0.00 0.00 0.00 0.00 0.00 0.00 0.00 0.00 0.00 0.00 0.00 0.00 0.00 0.00 0.00 0.00 0.00 0.00 0.00 0.00 0.00 0.00 0.00 0.00 0.00 0.00 0.00 0.00 0.00 0.00 0.00 0.00
0.00 0.00 0.00 0.00 0.00 0.00 0.00 0.00 0.00 0.00 0.00 0.00 0.00 0.00 0.00 0.00 0.00 0.00 0.00 0.00 0.00 0.00 0.00 0.00 0.00 0.00 0.00 0.00 0.00 0.00 0.00 0.00 0.00 0.00 0.00 0.00 0.00 0.00 0.00 0.00 0.00 0.00 0.00 0.00
0.00 0.00 0.00 0.00 0.00 0.00 0.00 0.00 0.00 0.00 0.00 0.00 0.00 0.00 0.00 0.00 0.00 0.00 0.00 0.00 0.00 0.00 0.00 0.00 0.00 0.00 0.00 0.00 0.00 0.00 0.00 0.00 0.00 0.00 0.00 0.00 0.00 0.00 0.00 0.00 0.00 0.00 0.00 0.00
MSLP
1031.54 1031.52 1031.28 1031.70 1031.31 1030.50 1029.86 1030.07 1030.36 1031.26 1030.89 1030.86 1030.19 1029.74 1029.43 1029.62 1029.49 1029.45 1029.34 1029.25 1029.38 1029.55 1029.59 1029.56 1029.60 1029.54 1029.55 1029.52 1029.36 1028.97 1028.38 1028.12 1027.61 1026.74 1026.47 1026.81 1026.50 1026.18 1025.82 1025.35 1025.04 1024.48 1023.89 1023.24
1032.73 1031.98 1031.99 1032.19 1032.20 1031.96 1031.64 1031.77 1031.81 1031.79 1031.64 1031.63 1030.89 1030.51 1030.01 1030.06 1029.95 1029.85 1029.73 1029.70 1029.82 1029.84 1029.81 1029.76 1029.84 1029.88 1029.86 1029.93 1029.83 1029.48 1029.48 1029.46 1028.69 1028.38 1028.41 1027.74 1027.35 1027.54 1026.99 1026.63 1026.26 1025.74 1025.19 1024.68
1033.73 1032.61 1032.54 1032.88 1033.07 1033.19 1033.31 1033.15 1033.02 1032.79 1032.68 1031.91 1031.25 1030.85 1030.49 1030.22 1030.30 1030.18 1029.98 1029.82 1029.91 1029.91 1029.99 1030.03 1030.09 1030.11 1030.15 1030.14 1030.18 1030.33 1029.90 1029.96 1029.89 1029.67 1029.36 1028.90 1028.49 1028.34 1028.56 1027.76 1027.34 1027.22 1026.75 1025.95
1035.31 1034.30 1034.64 1034.46 1033.72 1033.47 1033.57 1033.69 1033.43 1033.16 1032.63 1032.02 1031.38 1030.78 1030.50 1030.61 1030.62 1030.34 1030.12 1029.73 1029.77 1029.66 1029.66 1029.73 1029.94 1030.01 1030.18 1030.30 1030.33 1030.07 1029.99 1030.44 1030.72 1030.57 1030.26 1029.78 1029.30 1029.17 1029.56 1028.61 1028.45 1027.84 1027.62 1027.16
1037.48 1037.15 1036.29 1034.79 1034.12 1034.10 1033.92 1033.67 1033.36 1033.08 1032.47 1031.88 1031.09 1030.57 1030.60 1030.35 1030.21 1029.93 1029.81 1029.46 1029.47 1029.40 1029.35 1029.54 1029.67 1029.80 1030.05 1030.29 1030.42 1030.26 1030.53 1030.82 1030.97 1030.95 1031.16 1030.74 1030.50 1030.51 1030.47 1029.54 1029.30 1028.12 1028.51 1027.94
1038.39 1038.61 1037.62 1036.15 1034.43 1033.86 1033.80 1033.51 1032.99 1032.84 1032.51 1032.11 1031.47 1030.98 1030.55 1030.20 1029.98 1029.58 1029.27 1029.13 1029.11 1028.89 1028.87 1029.18 1029.67 1029.83 1030.02 1030.26 1030.52 1030.43 1030.64 1030.86 1031.27 1031.17 1031.23 1031.52 1031.66 1031.38 1031.01 1030.27 1030.07 1029.32 1029.18 1028.60
1039.63 1039.28 1037.82 1036.46 1034.29 1034.04 1034.34 1034.69 1033.23 1032.98 1032.54 1032.12 1031.90 1031.66 1030.72 1030.11 1029.55 1029.14 1028.77 1028.68 1028.52 1028.54 1028.73 1028.74 1029.24 1029.72 1029.78 1029.93 1030.19 1030.15 1030.53 1031.02 1031.33 1031.68 1031.86 1031.94 1031.70 1031.72 1031.65 1031.38 1030.76 1029.98 1029.74 1028.97
1039.93 1039.17 1037.94 1036.22 1034.87 1035.12 1035.93 1034.43 1033.76 1033.22 1032.69 1032.02 1031.53 1030.91 1030.43 1029.82 1029.26 1028.93 1028.51 1028.19 1028.17 1028.26 1028.33 1028.33 1028.65 1029.27 1029.43 1029.51 1029.43 1030.03 1030.56 1030.95 1031.27 1031.55 1031.70 1031.87 1031.97 1032.11 1032.09 1031.63 1031.31 1031.10 1030.34 1029.66
1040.53 1038.65 1036.96 1036.45 1036.07 1035.74 1035.34 1034.58 1033.79 1033.27 1032.54 1032.00 1031.42 1030.81 1030.28 1029.69 1029.29 1028.82 1028.51 1028.15 1027.97 1028.03 1027.94 1028.21 1028.33 1028.75 1029.06 1028.75 1029.26 1029.81 1030.49 1030.89 1031.08 1031.37 1031.55 1031.90 1032.10 1032.31 1032.54 1032.25 1032.21 1031.40 1030.86 1030.40
1039.90 1037.98 1037.08 1035.89 1035.67 1035.48 1035.03 1034.48 1034.00 1033.43 1032.65 1032.05 1031.46 1030.92 1030.33 1029.79 1029.19 1028.87 1028.64 1028.34 1028.09 1028.15 1028.18 1028.06 1028.03 1028.09 1028.32 1028.32 1028.73 1029.27 1029.82 1030.30 1030.77 1031.36 1031.76 1031.88 1032.00 1032.15 1032.40 1032.79 1032.13 1031.48 1031.24 1030.86
1039.24 1037.98 1036.90 1035.82 1035.58 1035.29 1034.82 1034.32 1033.86 1033.39 1032.94 1032.34 1031.85 1031.16 1030.65 1030.10 1029.57 1029.17 1028.76 1028.27 1028.10 1028.08 1028.02 1027.91 1027.98 1027.93 1027.88 1027.97 1028.28 1028.85 1029.18 1029.52 1029.95 1030.48 1030.73 1031.31 1031.35 1031.41 1031.28 1031.20 1031.02 1030.76 1030.53 1030.42
1039.14 1038.13 1037.84 1036.55 1035.90 1035.37 1035.05 1034.44 1033.99 1033.50 1032.72 1032.54 1032.25 1031.67 1031.04 1030.40 1029.94 1029.47 1028.94 1028.55 1028.15 1027.86 1027.63 1027.40 1027.45 1027.53 1027.42 1027.45 1027.74 1028.05 1028.44 1028.62 1028.94 1029.45 1030.01 1030.36 1030.76 1030.38 1029.46 1029.12 1029.08 1028.46 1027.98 1028.42
1038.84 1037.94 1037.39 1036.46 1035.83 1035.41 1035.37 1034.61 1033.97 1033.47 1033.21 1032.89 1032.26 1031.90 1031.47 1030.92 1030.25 1029.35 1029.40 1028.98 1028.55 1028.14 1027.82 1027.59 1027.38 1027.06 1026.84 1026.87 1026.95 1027.24 1027.44 1027.70 1027.98 1028.39 1028.94 1029.66 1030.03 1030.02 1029.79 1028.98 1028.22 1027.93 1027.65 1027.32
1038.25 1037.66 1036.85 1036.23 1035.67 1035.06 1034.82 1034.23 1033.86 1033.58 1033.19 1032.82 1032.41 1031.89 1031.52 1030.99 1030.34 1029.90 1029.58 1029.09 1028.60 1028.08 1027.73 1027.51 1027.35 1026.93 1026.42 1026.42 1026.46 1026.46 1026.55 1026.39 1027.04 1027.50 1027.96 1028.48 1028.79 1028.95 1029.08 1029.14 1029.05 1029.01 1028.48 1027.74
1037.71 1037.17 1036.65 1035.74 1035.43 1034.86 1034.20 1033.78 1033.54 1033.21 1032.75 1032.47 1032.01 1031.75 1031.35 1030.95 1030.48 1029.95 1029.40 1029.02 1028.61 1028.11 1027.64 1027.28 1026.94 1026.29 1025.93 1025.83 1025.86 1025.94 1026.09 1026.21 1026.17 1026.40 1026.76 1027.17 1027.64 1028.11 1028.38 1028.63 1028.71 1028.90 1028.98 1028.59
1036.89 1036.38 1035.78 1035.42 1034.69 1034.04 1033.51 1033.28 1032.95 1032.37 1031.82 1031.60 1031.38 1031.21 1031.08 1030.70 1030.10 1029.72 1029.32 1028.96 1028.85 1028.26 1027.51 1027.02 1026.58 1025.97 1025.55 1025.39 1025.34 1025.37 1025.47 1025.19 1025.22 1025.70 1026.03 1026.12 1026.55 1027.05 1027.45 1027.78 1028.08 1028.36 1028.57 1028.50
1036.25 1035.28 1034.88 1034.42 1034.06 1033.45 1032.93 1032.45 1032.02 1031.58 1031.04 1030.69 1030.36 1030.10 1030.14 1030.19 1029.91 1029.64 1029.17 1028.75 1028.42 1027.95 1027.33 1026.69 1026.10 1025.36 1024.95 1024.76 1024.73 1024.62 1024.62 1024.66 1024.25 1024.19 1024.97 1025.29 1025.67 1026.09 1026.48 1026.89 1027.25 1027.55 1027.58 1027.57
1036.17 1035.42 1034.76 1034.17 1033.41 1032.76 1032.32 1031.92 1031.37 1030.89 1030.43 1029.86 1029.38 1029.21 1029.43 1029.54 1029.39 1029.15 1028.91 1028.56 1028.12 1027.52 1026.81 1026.19 1025.74 1024.75 1024.33 1024.02 1023.87 1023.82 1023.84 1023.89 1023.96 1023.92 1024.10 1024.43 1024.61 1024.98 1025.42 1025.85 1026.19 1026.47 1026.64 1026.80
1035.59 1035.00 1034.35 1033.65 1033.07 1032.53 1031.88 1031.29 1030.82 1030.33 1029.91 1029.37 1028.86 1028.54 1028.55 1028.76 1028.62 1028.51 1028.39 1028.25 1027.90 1027.47 1026.57 1025.79 1025.08 1024.44 1024.09 1023.66 1022.74 1022.98 1023.16 1023.30 1023.42 1023.46 1023.50 1023.51 1023.73 1024.06 1024.49 1024.85 1025.19 1025.51 1025.85 1026.16
1035.14 1034.59 1033.94 1033.31 1032.71 1032.13 1031.43 1030.87 1030.30 1029.82 1029.37 1028.93 1028.39 1027.99 1028.00 1028.04 1028.00 1028.05 1027.96 1028.06 1027.43 1026.98 1026.05 1025.52 1025.06 1024.48 1023.88 1023.29 1022.54 1021.96 1022.44 1022.65 1022.81 1022.90 1023.05 1023.09 1023.11 1023.29 1023.53 1023.82 1024.29 1024.57 1024.87 1025.09
1034.93 1034.25 1033.75 1033.19 1032.54 1031.93 1031.33 1030.71 1030.14 1029.79 1029.33 1028.84 1028.31 1027.96 1027.71 1027.65 1027.90 1027.77 1027.78 1027.34 1026.67 1026.24 1025.26 1025.26 1024.96 1024.38 1023.55 1022.95 1023.06 1022.86 1022.62 1022.59 1022.55 1022.48 1022.40 1022.27 1022.38 1022.48 1022.78 1023.00 1023.23 1023.35 1023.81 1024.07
1034.90 1034.36 1033.85 1033.24 1032.61 1032.09 1031.49 1030.91 1030.64 1030.25 1029.68 1029.09 1028.62 1028.24 1028.02 1027.83 1027.65 1027.47 1027.26 1027.04 1026.39 1025.58 1025.55 1025.44 1024.91 1023.97 1022.86 1023.50 1023.56 1023.39 1023.09 1022.65 1022.24 1021.98 1021.81 1021.72 1021.74 1021.81 1021.93 1022.15 1022.36 1022.49 1022.67 1022.98
1035.15 1034.60 1034.06 1033.39 1032.99 1032.42 1031.71 1031.23 1030.93 1030.41 1030.06 1029.48 1028.96 1028.65 1028.39 1027.94 1027.60 1027.38 1027.12 1026.74 1026.10 1025.46 1025.72 1025.47 1024.44 1023.38 1022.76 1023.83 1023.82 1023.69 1023.40 1022.90 1022.31 1021.63 1021.22 1021.06 1020.95 1021.00 1021.13 1021.29 1021.49 1021.69 1021.92 1022.13
1035.34 1034.69 1033.99 1033.75 1033.29 1032.60 1031.98 1031.26 1031.10 1030.66 1030.34 1029.76 1029.36 1029.09 1028.69 1028.20 1027.81 1027.46 1027.24 1026.74 1026.02 1025.28 1025.61 1025.50 1024.52 1023.78 1023.42 1024.14 1024.08 1023.79 1023.58 1022.99 1022.26 1021.53 1020.68 1020.16 1020.39 1020.43 1020.52 1020.60 1020.77 1020.94 1021.19 1021.35
1035.47 1034.73 1034.30 1034.02 1033.51 1032.80 1032.06 1031.55 1031.14 1030.88 1030.38 1029.90 1029.57 1029.33 1028.98 1028.61 1028.35 1027.71 1027.37 1026.99 1026.51 1026.13 1026.35 1026.00 1025.15 1024.53 1024.64 1024.49 1024.25 1024.05 1023.68 1023.00 1022.09 1020.95 1020.53 1019.81 1019.75 1019.90 1020.03 1020.16 1020.24 1020.41 1020.52 1020.62
1035.35 1034.81 1034.48 1034.28 1033.66 1032.90 1032.54 1031.90 1031.38 1031.16 1030.44 1030.11 1029.86 1029.63 1029.11 1028.67 1028.27 1027.74 1027.47 1027.02 1026.88 1026.56 1026.57 1026.22 1025.76 1025.17 1025.01 1024.69 1024.29 1024.20 1023.79 1023.16 1022.37 1021.59 1020.63 1020.23 1019.75 1019.60 1019.63 1019.70 1019.70 1019.74 1019.71 1019.79
1035.30 1034.96 1034.33 1034.13 1033.43 1032.88 1032.73 1032.29 1031.83 1031.56 1030.94 1030.44 1030.26 1029.85 1029.34 1028.87 1028.42 1027.77 1027.42 1027.24 1027.05 1026.86 1026.61 1026.25 1025.89 1025.47 1025.02 1024.67 1024.58 1024.23 1023.82 1023.29 1022.51 1021.65 1021.23 1020.79 1020.37 1019.97 1019.58 1019.37 1019.22 1019.08 1019.06 1019.09
Thickness
5116 5105 5100 5096 5094 5101 5103 5105 5099 5097 5103 5108 5124 5129 5137 5142 5149 5154 5160 5168 5172 5175 5179 5185 5190 5195 5201 5206 5213 5222 5234 5241 5251 5263 5271 5273 5279 5285 5294 5302 5310 5319 5328 5339
5097 5108 5105 5092 5091 5089 5090 5087 5092 5095 5096 5101 5110 5115 5124 5128 5138 5143 5150 5157 5161 5165 5171 5178 5182 5186 5192 5196 5202 5212 5217 5222 5234 5243 5248 5257 5266 5268 5276 5285 5291 5299 5308 5316
5111 5099 5091 5086 5086 5081 5072 5076 5075 5078 5084 5094 5101 5106 5114 5119 5126 5132 5140 5147 5152 5157 5160 5166 5170 5176 5180 5186 5192 5197 5206 5212 5218 5225 5232 5240 5249 5253 5254 5265 5273 5277 5285 5295
5101 5097 5074 5092 5087 5088 5076 5070 5073 5076 5082 5089 5096 5105 5111 5111 5115 5124 5133 5141 5145 5151 5157 5159 5161 5167 5171 5176 5181 5191 5198 5200 5204 5211 5218 5228 5236 5240 5239 5251 5256 5264 5269 5277
5085 5037 5063 5080 5090 5077 5075 5080 5075 5077 5083 5088 5097 5102 5103 5109 5110 5119 5126 5133 5138 5144 5148 5152 5155 5159 5163 5167 5171 5179 5184 5188 5194 5200 5203 5212 5218 5222 5225 5236 5241 5253 5253 5260
5022 5025 5035 5080 5088 5082 5073 5089 5092 5088 5086 5085 5092 5098 5106 5103 5110 5116 5122 5127 5131 5139 5144 5145 5147 5151 5155 5159 5161 5169 5174 5178 5181 5188 5195 5198 5200 5206 5212 5222 5226 5235 5240 5246
5020 4997 5052 5066 5087 5070 5075 5076 5088 5086 5086 5087 5086 5090 5097 5103 5109 5114 5118 5123 5127 5131 5136 5141 5141 5143 5148 5152 5156 5164 5166 5167 5171 5174 5177 5182 5188 5193 5197 5204 5212 5221 5226 5234
5026 5024 5057 5077 5085 5078 5070 5076 5081 5082 5085 5088 5091 5096 5099 5105 5110 5114 5117 5122 5125 5127 5130 5135 5135 5135 5141 5145 5152 5153 5154 5157 5161 5164 5169 5173 5175 5178 5183 5190 5197 5201 5209 5217
5060 5065 5065 5062 5069 5064 5064 5073 5076 5079 5085 5088 5090 5095 5099 5103 5106 5110 5114 5118 5121 5121 5126 5126 5129 5129 5132 5140 5140 5142 5142 5144 5148 5152 5157 5159 5161 5164 5168 5170 5176 5181 5190 5194
5052 5064 5061 5073 5068 5066 5069 5068 5070 5074 5080 5084 5087 5090 5093 5097 5101 5104 5106 5110 5114 5114 5115 5119 5122 5124 5126 5131 5131 5132 5134 5135 5136 5137 5139 5144 5151 5152 5152 5153 5158 5162 5166 5171
5054 5052 5071 5067 5072 5069 5068 5069 5069 5069 5071 5074 5077 5081 5085 5088 5092 5095 5098 5104 5107 5108 5109 5111 5113 5115 5117 5122 5123 5123 5125 5127 5129 5130 5132 5132 5137 5139 5140 5146 5151 5148 5153 5157
5041 5055 5051 5060 5061 5059 5058 5062 5061 5062 5068 5065 5066 5069 5074 5078 5080 5083 5088 5092 5097 5102 5104 5107 5108 5109 5113 5115 5116 5118 5118 5120 5120 5121 5121 5123 5124 5127 5136 5139 5141 5148 5153 5153
5049 5047 5047 5050 5046 5037 5040 5048 5049 5054 5051 5053 5055 5057 5061 5064 5064 5076 5072 5076 5082 5088 5091 5094 5096 5100 5105 5109 5112 5112 5112 5111 5112 5118 5113 5109 5111 5112 5115 5124 5131 5135 5139 5142
5035 5037 5044 5026 5039 5037 5031 5031 5032 5028 5031 5034 5036 5040 5043 5048 5054 5055 5058 5064 5070 5076 5077 5080 5083 5087 5094 5098 5102 5104 5105 5109 5106 5105 5105 5104 5104 5106 5107 5108 5109 5112 5120 5125
5037 5029 5028 5030 5021 5019 5019 5014 5018 5017 5017 5017 5020 5020 5027 5030 5037 5044 5045 5050 5056 5058 5060 5066 5071 5077 5084 5088 5091 5093 5094 5094 5098 5098 5099 5099 5100 5099 5099 5100 5101 5101 5103 5107
5038 5030 5024 5017 5021 5019 5017 5007 5004 5011 5012 5007 5002 5004 5007 5011 5019 5022 5025 5030 5034 5044 5050 5054 5059 5066 5071 5075 5078 5081 5082 5087 5090 5089 5088 5093 5093 5092 5091 5092 5093 5093 5095 5094
5031 5031 5024 5018 5011 5007 5002 5001 4997 4997 4998 4998 4998 4997 4993 4992 4997 5001 5006 5011 5017 5024 5031 5040 5047 5053 5059 5065 5069 5072 5075 5076 5083 5087 5082 5082 5084 5083 5083 5084 5084 5084 5085 5087
5022 5015 5007 5000 4997 4994 4990 4986 4984 4983 4982 4984 4985 4985 4981 4975 4980 4987 4986 4991 4996 5004 5012 5021 5027 5039 5049 5053 5057 5060 5063 5065 5068 5072 5074 5073 5074 5076 5076 5075 5075 5075 5074 5076
5019 5009 5001 4994 4987 4981 4977 4975 4972 4969 4966 4967 4970 4971 4970 4965 4967 4968 4970 4971 4976 4983 4992 5001 5012 5021 5025 5032 5045 5046 5050 5053 5055 5058 5062 5065 5065 5067 5066 5066 5066 5066 5065 5065
5016 5006 4996 4988 4980 4972 4967 4963 4961 4959 4955 4954 4955 4956 4954 4955 4956 4955 4956 4954 4962 4967 4977 4984 4991 4997 5005 5011 5024 5036 5035 5038 5041 5043 5045 5049 5054 5056 5056 5058 5056 5056 5056 5057
5011 5000 4989 4980 4972 4964 4959 4955 4951 4946 4944 4942 4942 4942 4942 4942 4940 4940 4940 4947 4954 4959 4970 4971 4973 4980 4988 4999 5004 5009 5014 5018 5021 5025 5029 5035 5037 5043 5043 5044 5046 5049 5047 5048
5005 4994 4983 4973 4964 4957 4952 4947 4940 4935 4932 4930 4929 4929 4928 4927 4927 4930 4935 4939 4943 4953 4954 4954 4961 4971 4982 4982 4983 4988 4993 4999 5004 5008 5013 5017 5022 5025 5030 5032 5033 5035 5038 5038
5002 4990 4979 4971 4961 4952 4947 4942 4935 4930 4924 4924 4922 4919 4917 4919 4922 4924 4924 4932 4938 4945 4941 4944 4955 4965 4974 4964 4966 4970 4976 4983 4989 4996 5002 5007 5012 5015 5018 5020 5022 5024 5025 5026
5002 4992 4984 4970 4957 4951 4944 4941 4933 4928 4922 4921 4919 4916 4915 4915 4918 4920 4921 4926 4933 4940 4938 4938 4947 4954 4959 4953 4957 4960 4964 4970 4977 4984 4993 5001 5002 5005 5008 5011 5013 5015 5016 5018
5005 4998 4985 4970 4960 4952 4948 4944 4936 4929 4925 4923 4920 4916 4915 4915 4913 4918 4919 4921 4926 4929 4926 4930 4938 4943 4941 4944 4948 4950 4954 4961 4970 4980 4984 4992 4995 4997 4999 5002 5004 5006 5008 5009
5014 5003 4988 4973 4965 4961 4952 4946 4940 4933 4931 4927 4924 4920 4919 4919 4919 4920 4920 4923 4923 4926 4923 4926 4930 4935 4936 4939 4943 4943 4947 4952 4960 4967 4976 4980 4986 4989 4992 4996 4998 5002 5005 5006
5021 5010 5001 4986 4980 4972 4960 4951 4944 4938 4936 4932 4928 4925 4925 4924 4924 4927 4927 4926 4925 4925 4926 4927 4929 4931 4935 4938 4937 4940 4943 4947 4954 4962 4965 4970 4976 4980 4985 4991 4996 4999 5002 5004